Location: Unspecified
(41.9031°N, 12.4386°E)
Time: 06:30:45
(UTC+02:00)

ISS - Visible Passes

Search period start: 13 May 2021 00:00
Search period end: 23 May 2021 00:00
Orbit: 417 x 422 km, 51.6° (Epoch: 12 May)

Date Brightness Start Highest point End Pass type
(mag) Time Alt. Az. Time Alt. Az. Time Alt. Az.
13 May -0.7 02:05:02 14° NNW 02:06:12 16° N 02:08:21 10° NE visible
13 May -1.3 03:41:05 10° NW 03:43:54 24° NNE 03:46:42 10° ENE visible
13 May -3.8 05:17:37 10° WNW 05:20:59 73° SW 05:24:21 10° SE visible
14 May -0.7 01:18:38 16° N 01:18:38 16° N 01:20:46 10° NE visible
14 May -1.0 02:53:43 10° NW 02:56:16 19° NNE 02:58:49 10° ENE visible
14 May -3.4 04:30:11 10° NW 04:33:33 69° NNE 04:36:55 10° ESE visible
14 May -2.3 21:14:33 10° S 21:16:58 18° SE 21:19:22 10° E visible
14 May -3.1 22:50:11 10° WSW 22:53:30 55° NNW 22:55:36 20° NE visible
15 May -0.9 00:28:26 10° WNW 00:30:51 18° NNW 00:33:17 10° NE visible
15 May -0.8 02:06:17 10° NW 02:08:37 17° N 02:10:56 10° NE visible
15 May -2.5 03:42:48 10° NW 03:46:04 44° NNE 03:49:19 10° ESE visible
15 May -3.8 22:02:41 10° SW 22:06:02 89° NNW 22:09:25 10° NE visible
15 May -1.1 23:40:32 10° WNW 23:43:13 21° NNW 23:45:54 10° NE visible
16 May -0.6 01:18:46 10° NW 01:20:56 16° N 01:23:06 10° NE visible
16 May -1.8 02:55:28 10° NW 02:58:32 31° NNE 03:01:35 10° E visible
16 May -3.4 04:32:13 10° WNW 04:35:25 41° SW 04:38:36 10° SSE visible
16 May -3.7 21:15:22 10° SW 21:18:38 53° SE 21:21:56 10° ENE visible
16 May -1.5 22:52:41 10° W 22:55:37 27° NNW 22:58:33 10° NE visible
17 May -0.6 00:31:07 10° NW 00:33:15 16° N 00:35:23 10° NE visible
17 May -1.3 02:08:08 10° NW 02:10:57 24° NNE 02:13:45 10° ENE visible
17 May -3.9 03:45:04 13° WNW 03:48:02 72° SW 03:51:24 10° SE visible
17 May -2.1 22:04:54 10° W 22:08:03 37° NNW 22:11:13 10° NE visible
17 May -0.7 23:43:21 10° NW 23:45:34 16° N 23:47:48 10° NE visible
18 May -1.0 01:20:46 10° NW 01:22:57 19° N 01:22:57 19° N visible
18 May -2.9 21:17:14 10° WSW 21:20:32 55° NNW 21:23:51 10° NE visible
18 May -0.8 22:55:29 10° WNW 22:57:54 18° NNW 23:00:20 10° NE visible
19 May -0.9 00:33:20 10° NW 00:35:40 17° N 00:36:32 16° NNE visible
19 May -1.1 22:07:35 10° WNW 22:10:15 21° NNW 22:12:56 10° NE visible
19 May -0.7 23:45:49 10° NW 23:47:59 16° N 23:50:09 10° NE visible
20 May -0.8 01:22:30 10° NW 01:23:17 15° NNW 01:23:17 15° NNW visible
20 May -1.5 21:19:43 10° W 21:22:39 27° NNW 21:25:35 10° NE visible
20 May -0.7 22:58:10 10° NW 23:00:17 16° N 23:02:25 10° NE visible
21 May -1.2 00:35:10 10° NW 00:37:13 22° N 00:37:13 22° N visible
21 May -0.8 22:10:23 10° NW 22:12:36 16° N 22:14:50 10° NE visible
21 May -1.3 23:47:48 10° NW 23:50:21 20° NNE 23:51:11 18° NE visible
22 May -0.9 21:22:30 10° WNW 21:24:55 18° NNW 21:27:21 10° NE visible
22 May -1.0 23:00:22 10° NW 23:02:41 17° N 23:05:00 10° NE visible
